Temperature
23 24 24 24 23 24 23 23 22 23 23 24 23 23 23 23 22 22 21 21 20 20 19 19 19 19 19 18 18 18 18 17 17 17 17 17 16 16 16 16 16 16 15 15
23 24 24 24 24 24 24 24 23 23 23 24 24 24 23 23 22 21 21 20 20 19 19 19 19 19 18 18 18 18 17 17 17 17 17 16 16 16 16 15 15 15 15 15
22 23 23 23 24 24 24 24 24 23 23 24 23 23 23 22 22 21 21 20 20 19 19 19 19 19 18 18 18 18 17 17 17 17 16 16 16 16 15 15 15 15 15 15
22 22 21 23 25 25 24 24 24 24 24 23 23 23 22 22 21 20 20 20 19 19 19 19 19 18 18 18 18 17 17 17 16 16 16 16 16 15 15 15 15 15 14 14
21 21 21 23 24 24 24 23 24 24 23 23 23 22 22 21 21 20 20 19 19 19 19 19 19 18 18 18 17 17 17 16 16 16 16 15 15 15 15 15 14 14 14 14
21 20 20 22 24 24 24 22 23 23 23 23 22 21 20 20 20 20 19 19 19 19 19 19 18 18 18 17 17 17 16 16 16 16 15 15 15 15 14 14 14 14 14 14
21 21 21 23 24 24 22 22 23 23 22 22 21 21 20 20 19 19 19 18 18 18 18 18 18 18 17 17 17 17 16 16 16 15 15 15 15 14 14 14 14 13 13 13
21 20 20 23 23 22 22 23 22 22 21 21 20 20 19 19 18 18 18 18 18 18 18 18 18 18 17 17 17 16 16 16 15 15 15 14 14 14 14 13 13 13 13 13
21 21 22 22 22 22 22 22 21 21 21 20 19 19 18 18 18 18 17 17 17 17 17 17 17 17 17 17 16 16 16 15 15 15 14 14 14 14 13 13 13 12 12 12
21 21 21 21 21 21 21 21 20 20 20 19 19 18 18 18 17 17 17 17 17 17 17 17 16 16 16 16 16 16 15 15 15 14 14 14 14 13 13 13 12 12 12 12
21 21 21 20 20 20 20 19 19 19 19 18 18 18 17 17 17 17 16 16 16 16 16 16 16 16 16 15 15 15 15 14 14 14 14 13 13 13 13 12 12 12 12 11
19 20 20 20 20 19 19 19 18 18 18 18 17 17 17 16 16 16 16 16 15 15 15 15 15 15 15 15 15 14 14 14 14 13 13 13 13 12 12 12 12 12 11 11
19 19 19 19 19 18 18 18 18 17 17 17 17 16 16 16 16 16 15 15 15 15 15 15 15 15 14 14 14 14 14 13 13 13 13 13 12 12 12 12 11 11 11 11
18 18 18 18 18 17 17 17 17 17 17 16 16 16 16 15 15 15 15 15 14 14 14 14 14 14 14 14 14 13 13 13 13 13 12 12 12 12 11 11 11 11 11 10
17 17 17 17 17 17 16 16 16 16 16 16 16 15 15 15 15 15 14 14 14 14 13 13 13 13 13 13 13 13 13 12 12 12 12 12 11 11 11 11 11 10 10 10
16 16 16 16 16 16 16 15 15 15 15 15 15 15 14 14 14 14 14 13 13 13 13 13 13 13 13 13 12 12 12 12 12 12 11 11 11 11 10 10 10 10 10 10
16 15 15 15 15 15 15 15 15 14 14 14 14 14 14 14 14 14 13 13 13 13 13 12 12 12 12 12 12 12 12 11 11 11 11 10 10 10 10 10 10 9 9 9
15 15 15 15 15 14 14 14 14 14 14 14 13 13 13 13 13 13 13 13 12 12 12 12 12 12 12 12 12 11 11 11 11 10 10 10 10 10 10 9 9 9 9 8
14 14 14 14 14 14 14 14 14 14 13 13 13 13 13 13 13 13 12 12 12 12 12 12 12 11 11 11 11 11 11 10 10 10 10 9 9 9 9 9 9 9 8 8
13 13 13 14 13 14 14 13 13 13 13 13 12 12 12 12 12 12 12 12 12 11 11 11 11 11 11 10 10 10 10 9 9 9 9 9 8 8 8 8 8 8 8 7
13 13 13 13 13 13 13 13 13 13 12 12 12 12 12 12 12 12 11 11 11 11 11 11 10 10 10 10 10 9 9 9 9 8 8 8 8 8 8 7 7 7 7 7
12 12 12 12 12 12 12 12 12 12 12 12 12 12 11 11 11 11 11 11 11 10 10 10 10 10 9 9 9 9 8 8 8 8 8 7 7 7 7 7 7 7 6 6
11 11 11 11 11 12 12 12 12 12 11 11 11 11 11 11 11 10 10 10 10 10 10 10 9 9 9 9 8 8 8 8 8 7 7 7 7 7 6 6 6 6 6 6
11 11 11 11 11 11 11 11 11 11 11 11 10 10 10 10 10 10 10 10 9 9 9 9 9 9 8 8 8 8 7 7 7 7 7 6 6 6 6 6 5 5 5 5
10 10 10 10 10 10 10 10 10 10 10 10 10 10 9 9 9 9 9 9 9 9 9 8 8 8 8 7 7 7 7 7 7 6 6 6 5 5 5 5 5 5 5 4
10 10 10 10 10 10 10 10 10 9 9 9 9 9 9 9 8 8 8 8 8 8 8 8 7 7 7 7 6 6 6 6 6 6 6 5 5 5 5 5 4 4 4 4
9 9 9 9 9 9 9 9 9 9 9 9 8 8 8 8 8 8 8 7 7 7 7 7 6 6 6 6 6 6 6 6 6 5 5 5 5 5 4 4 4 4 4 3
Wind_Speed
7 7 7 7 7 7 7 6 5 4 4 2 2 3 3 5 5 5 6 6 6 7 6 6 6 6 6 6 6 6 6 5 4 3 4 4 3 3 2 2 2 2 3 3
8 8 9 9 9 10 8 7 6 6 5 2 1 3 3 4 5 5 5 5 6 6 6 7 7 6 6 6 6 6 6 5 4 3 4 4 4 3 3 2 2 2 3 3
8 8 9 10 9 9 8 6 6 5 2 1 1 0 2 3 3 5 5 5 5 6 6 6 6 6 6 7 7 7 7 5 4 4 4 4 4 4 3 3 2 2 2 3
7 8 9 4 4 5 5 4 3 1 1 1 1 1 2 4 3 3 4 4 4 4 5 5 5 6 6 6 6 6 6 6 5 5 4 4 4 3 3 2 3 3 2 3
6 8 7 6 5 4 4 4 2 2 2 1 0 1 2 3 3 3 3 3 3 3 4 4 5 6 7 6 6 6 6 6 6 6 5 4 4 4 3 2 2 2 2 2
8 8 8 3 2 3 4 5 3 2 2 1 2 2 1 3 3 4 3 3 3 2 2 3 4 5 6 7 6 5 5 5 5 5 5 5 4 3 3 2 2 2 2 2
11 10 5 1 1 2 4 2 2 2 1 1 1 1 3 4 4 4 4 4 3 3 2 2 3 5 6 5 5 5 5 5 5 5 5 5 4 3 3 2 2 2 2 1
9 9 6 1 2 2 1 2 2 2 2 3 4 4 4 4 4 4 4 4 4 3 2 2 3 5 5 4 4 5 5 5 5 5 5 5 5 3 3 3 2 2 2 1
5 3 1 1 1 3 4 2 2 2 1 2 3 3 3 3 3 4 4 3 3 3 3 3 3 4 4 4 5 5 5 5 5 5 4 4 5 4 3 3 2 2 2 2
7 4 3 3 2 1 2 3 3 2 1 2 2 2 3 2 2 3 3 3 3 3 3 2 2 3 3 3 4 5 5 5 4 4 4 4 3 3 3 2 2 2 2 2
9 6 4 3 2 1 1 2 2 2 1 1 1 1 1 2 1 2 2 2 2 2 2 2 3 3 3 3 3 4 5 4 4 4 4 3 3 2 2 1 2 3 2 2
7 6 5 3 2 1 1 0 1 1 1 0 0 0 0 1 1 2 2 2 2 2 2 2 3 3 3 3 3 3 4 4 3 3 4 4 3 2 3 2 2 2 3 3
7 7 4 3 2 1 2 2 1 1 1 1 1 1 1 1 1 2 3 3 3 3 3 2 3 3 3 3 3 3 3 3 3 3 3 3 3 3 2 2 3 2 1 2
6 5 5 4 3 2 2 2 1 1 1 1 1 1 2 1 2 3 3 3 3 3 2 2 2 2 3 3 2 2 2 3 3 3 3 3 3 3 3 2 1 1 1 2
7 6 5 4 3 3 2 2 2 2 2 1 1 2 2 1 2 3 3 3 3 3 3 2 2 2 3 3 2 2 2 2 2 3 2 2 3 3 2 3 2 2 1 0
5 4 4 4 3 3 3 3 3 3 3 2 2 2 1 1 2 3 3 3 3 3 3 3 2 3 2 3 3 2 2 4 3 2 2 2 2 2 2 3 2 2 2 2
6 6 5 5 5 5 5 4 4 4 3 3 2 1 1 1 2 3 3 3 3 3 3 3 3 3 2 2 3 2 2 3 4 2 2 2 2 2 2 2 2 2 2 3
6 5 5 5 5 5 5 5 5 4 3 2 2 2 3 3 3 4 4 3 3 2 2 3 4 3 2 2 2 2 2 2 2 2 2 2 2 2 2 2 2 2 2 2
5 5 6 6 6 6 5 4 4 3 3 3 3 4 4 3 3 3 4 3 3 3 2 3 4 2 2 2 2 2 2 2 1 1 1 2 1 1 2 2 2 2 2 2
6 6 6 5 5 5 4 3 3 3 3 4 3 3 3 3 3 3 4 3 2 2 3 3 3 2 3 3 3 2 2 1 1 1 1 1 1 1 1 1 1 2 2 2
5 4 5 5 5 5 4 4 4 4 3 3 4 3 3 2 2 3 4 3 2 3 3 4 2 2 2 2 2 1 1 1 1 1 1 1 1 1 1 1 1 1 1 1
4 4 4 5 5 4 3 3 4 4 4 3 3 3 4 3 3 3 3 3 3 3 3 3 2 2 2 2 1 1 1 1 1 1 1 1 1 1 1 1 1 0 0 1
3 3 4 4 4 3 3 2 3 4 4 4 3 4 4 3 3 3 3 3 3 4 3 3 3 3 3 1 1 1 1 1 1 1 1 1 1 1 1 1 0 0 0 0
3 4 3 3 3 3 2 2 2 2 3 3 3 4 4 3 3 3 3 4 4 3 3 4 4 4 2 1 1 1 1 1 1 1 1 1 0 0 0 1 0 0 0 0
3 3 2 2 3 2 2 2 2 3 3 3 3 3 3 3 3 3 4 4 5 4 3 4 4 3 2 1 1 1 1 1 1 1 1 1 1 1 0 0 0 0 0 0
2 1 1 2 1 1 1 2 2 2 3 3 3 3 3 3 3 4 4 4 5 4 3 3 3 2 1 1 1 1 1 1 1 1 1 1 1 1 1 0 0 0 0 0
1 1 0 0 0 1 1 2 2 3 3 4 4 3 3 3 3 4 4 4 4 3 3 2 2 1 1 1 1 1 1 2 2 2 1 1 1 1 1 0 0 0 0 1
Wind_Direction
267 272 276 278 278 274 268 265 260 262 261 260 162 154 157 149 145 146 152 154 154 157 160 160 160 161 161 157 150 150 147 150 154 159 149 140 140 141 141 130 129 128 117 115
264 268 272 266 266 268 264 254 249 254 258 272 115 141 152 156 153 155 156 159 161 163 163 163 164 169 165 160 153 150 146 147 147 145 131 130 133 131 126 113 105 101 114 116
271 268 275 263 257 255 253 250 248 252 250 230 257 200 132 127 133 149 151 156 163 169 171 171 172 172 162 160 154 153 149 147 144 140 131 132 134 132 135 143 143 135 129 125
269 266 261 261 269 264 248 245 248 244 268 261 236 121 95 102 111 132 142 155 166 174 172 175 175 165 154 149 147 146 148 151 149 144 137 137 137 142 149 146 145 150 152 144
268 268 262 253 258 256 253 246 237 226 229 240 165 119 111 101 111 127 131 142 156 174 175 177 170 159 150 147 148 149 150 154 151 150 148 148 150 156 152 146 141 145 148 152
257 266 268 236 259 267 252 240 205 211 190 186 200 208 121 84 80 96 108 126 143 169 167 159 159 154 150 154 155 154 151 154 154 153 152 156 160 159 146 147 159 159 166 170
248 254 257 251 332 272 250 249 146 169 144 121 115 79 109 101 89 92 101 116 118 134 151 152 151 149 156 157 158 154 149 153 153 154 157 155 154 150 146 157 165 170 169 170
247 250 243 217 242 261 351 37 28 67 94 100 84 74 86 96 106 110 106 109 121 127 131 128 138 147 150 151 149 142 144 148 151 153 159 153 148 156 157 155 166 183 179 179
259 254 270 285 309 337 350 350 20 44 58 94 92 98 96 90 103 126 126 123 115 116 115 120 132 141 151 150 139 137 137 145 149 149 145 146 151 155 158 164 175 191 186 193
261 246 244 263 292 323 358 19 24 33 20 73 112 111 105 97 93 118 122 123 126 129 125 125 129 132 133 130 139 146 149 151 149 142 136 137 138 146 154 172 181 188 190 195
262 252 250 247 263 302 29 38 23 19 17 40 87 107 101 102 92 117 117 121 135 142 141 140 124 117 112 128 146 149 149 145 143 138 139 136 118 107 141 157 185 189 193 190
267 271 265 254 220 204 235 249 291 320 310 246 259 200 264 148 158 144 140 150 149 140 145 151 140 132 125 134 145 153 151 146 144 139 137 134 127 95 58 79 106 156 174 181
281 300 305 308 286 255 254 241 247 246 252 241 222 212 243 223 180 152 154 155 157 156 158 163 153 146 140 142 154 161 153 145 139 141 143 148 153 150 136 42 37 36 154 176
276 281 273 268 271 255 258 246 247 255 254 254 249 242 245 218 173 159 159 157 151 148 149 149 144 143 139 142 146 156 148 149 147 146 153 163 169 169 166 161 160 326 314 196
269 270 264 258 250 233 232 222 233 252 250 240 236 241 240 221 185 160 145 142 141 148 153 148 147 139 127 132 139 152 148 152 148 145 156 168 167 170 172 173 171 171 149 121
258 260 261 252 249 239 227 223 227 238 244 245 250 245 266 259 172 139 140 150 160 170 165 165 159 142 130 138 141 150 152 152 151 158 170 170 172 176 178 174 178 181 182 175
241 239 241 241 238 242 238 233 229 227 231 233 239 234 241 219 165 149 153 161 170 174 166 162 151 140 143 151 142 144 143 157 167 179 187 179 179 189 186 176 180 185 188 184
248 249 247 251 249 246 242 235 226 218 218 227 225 230 229 194 176 167 169 169 165 157 158 139 126 130 147 144 138 141 149 154 172 190 190 179 189 193 186 184 183 179 175 181
258 249 251 255 260 251 239 226 217 209 208 216 219 232 222 187 176 170 165 165 163 162 144 117 118 130 127 110 104 132 143 151 166 177 173 182 201 207 193 187 187 179 170 165
256 248 250 248 252 252 238 215 207 200 201 206 211 220 200 177 172 166 156 151 148 131 120 115 125 136 129 115 98 132 144 155 169 177 177 187 205 215 201 197 191 185 176 169
259 249 244 243 247 250 233 210 203 201 206 204 195 198 185 165 158 149 145 148 130 104 111 120 126 119 112 106 116 143 159 164 168 185 197 191 194 216 215 207 198 191 182 169
249 237 238 240 246 246 237 212 197 201 201 189 180 173 158 155 156 143 133 136 123 115 121 132 127 107 92 104 160 176 172 165 172 184 190 192 200 207 200 208 215 219 192 180
255 241 236 230 227 231 232 208 189 184 181 176 178 166 156 156 153 149 147 127 124 132 128 132 132 119 112 144 171 175 173 170 174 187 199 210 219 203 189 198 215 146 129 133
250 246 242 231 222 223 221 191 170 162 154 156 159 150 148 146 139 141 137 135 134 135 129 141 136 131 128 158 161 176 172 163 166 171 175 181 191 185 171 155 119 87 111 89
239 242 236 228 225 211 188 161 144 141 142 136 130 128 137 142 148 139 132 132 132 128 129 145 147 153 163 162 156 164 160 156 145 132 138 129 113 83 50 75 86 93 129 230
256 251 242 229 214 180 173 160 157 157 147 138 131 126 125 125 128 129 131 135 134 133 131 139 154 161 149 130 123 117 121 115 112 120 125 124 124 118 110 83 53 66 191 238
319 318 296 167 119 133 154 164 161 158 153 149 144 139 137 137 137 138 135 136 138 137 134 134 142 136 118 115 111 108 97 89 87 92 97 100 101 96 95 10 350 347 303 268
Height
1497 1494 1494 1495 1495 1494 1496 1497 1503 1502 1499 1495 1493 1495 1497 1498 1500 1503 1505 1508 1510 1512 1514 1517 1519 1521 1524 1526 1528 1530 1531 1533 1534 1536 1538 1539 1540 1542 1543 1544 1545 1546 1546 1547
1498 1493 1492 1493 1492 1492 1492 1492 1494 1495 1496 1490 1491 1493 1495 1497 1499 1501 1504 1506 1509 1511 1513 1515 1517 1520 1522 1524 1526 1528 1530 1531 1533 1535 1536 1537 1538 1540 1541 1542 1543 1544 1544 1545
1502 1494 1493 1497 1488 1487 1488 1487 1490 1494 1493 1490 1492 1493 1494 1496 1498 1500 1503 1505 1507 1509 1511 1513 1515 1518 1520 1522 1524 1526 1528 1530 1531 1533 1534 1535 1537 1538 1539 1540 1540 1541 1542 1543
1500 1500 1509 1492 1480 1480 1483 1484 1484 1487 1488 1490 1491 1492 1494 1495 1497 1499 1502 1504 1506 1508 1510 1512 1514 1516 1518 1521 1522 1524 1526 1528 1529 1531 1532 1533 1535 1536 1537 1538 1538 1539 1540 1540
1501 1503 1497 1487 1481 1480 1484 1486 1484 1486 1488 1490 1491 1492 1494 1496 1497 1499 1501 1502 1504 1507 1508 1510 1512 1514 1516 1518 1521 1522 1524 1526 1527 1528 1530 1531 1532 1534 1535 1536 1536 1537 1538 1538
1498 1504 1504 1489 1480 1479 1482 1489 1484 1485 1487 1489 1490 1494 1496 1496 1497 1498 1499 1501 1503 1505 1507 1508 1510 1512 1514 1516 1518 1520 1522 1523 1525 1526 1528 1529 1530 1531 1532 1533 1534 1535 1535 1536
1496 1497 1491 1482 1480 1481 1492 1490 1483 1484 1486 1488 1490 1492 1494 1495 1496 1497 1498 1500 1501 1503 1504 1506 1508 1510 1512 1514 1516 1518 1520 1521 1523 1524 1525 1527 1528 1529 1530 1531 1532 1532 1533 1533
1490 1495 1495 1481 1481 1484 1485 1482 1483 1484 1486 1488 1490 1492 1493 1494 1495 1496 1497 1499 1500 1502 1503 1505 1507 1509 1510 1512 1514 1516 1518 1519 1520 1522 1523 1525 1526 1527 1528 1529 1529 1530 1530 1530
1486 1488 1482 1481 1481 1482 1482 1483 1484 1485 1487 1488 1490 1492 1493 1494 1494 1496 1497 1498 1499 1501 1502 1504 1506 1507 1509 1511 1513 1514 1516 1517 1518 1520 1521 1522 1523 1524 1525 1526 1526 1527 1527 1527
1480 1480 1480 1480 1481 1482 1483 1484 1485 1486 1488 1489 1490 1491 1492 1493 1494 1495 1496 1497 1498 1499 1501 1502 1504 1505 1507 1509 1511 1512 1514 1515 1516 1517 1519 1520 1521 1522 1523 1523 1523 1524 1524 1524
1478 1478 1478 1479 1480 1482 1482 1484 1485 1486 1487 1488 1489 1490 1491 1492 1493 1494 1494 1496 1497 1498 1499 1500 1502 1503 1505 1507 1509 1510 1511 1513 1514 1515 1516 1517 1518 1519 1520 1521 1521 1521 1521 1522
1478 1477 1477 1478 1479 1480 1482 1483 1484 1485 1486 1488 1489 1489 1490 1491 1491 1492 1493 1494 1495 1496 1497 1499 1500 1501 1503 1505 1506 1508 1509 1510 1512 1513 1514 1515 1515 1516 1517 1518 1519 1519 1519 1519
1476 1476 1476 1477 1478 1479 1480 1482 1483 1484 1486 1486 1487 1488 1489 1489 1490 1490 1491 1492 1493 1494 1496 1497 1498 1499 1501 1502 1504 1505 1507 1508 1509 1510 1511 1512 1513 1514 1514 1515 1516 1516 1516 1516
1474 1475 1475 1476 1477 1478 1479 1480 1481 1482 1484 1485 1485 1486 1487 1487 1488 1488 1489 1490 1491 1492 1494 1495 1496 1497 1498 1500 1502 1503 1504 1506 1506 1508 1509 1510 1510 1511 1511 1511 1512 1512 1512 1512
1472 1473 1473 1474 1475 1476 1477 1478 1479 1480 1481 1482 1483 1484 1484 1485 1485 1486 1487 1488 1489 1490 1491 1492 1494 1495 1496 1498 1499 1500 1502 1503 1504 1505 1506 1507 1507 1508 1508 1508 1509 1509 1509 1509
1469 1470 1470 1471 1472 1473 1475 1476 1477 1478 1479 1480 1481 1481 1482 1482 1483 1483 1485 1486 1487 1488 1489 1490 1491 1493 1494 1495 1496 1498 1499 1500 1501 1502 1502 1503 1504 1505 1505 1505 1505 1505 1505 1505
1466 1467 1468 1469 1470 1471 1472 1473 1474 1476 1477 1477 1478 1479 1480 1480 1480 1481 1483 1484 1486 1487 1487 1488 1489 1490 1492 1493 1494 1495 1496 1497 1498 1499 1499 1500 1501 1501 1501 1502 1502 1502 1502 1502
1462 1463 1465 1466 1467 1468 1469 1470 1471 1472 1473 1474 1475 1476 1477 1477 1478 1479 1481 1482 1484 1485 1486 1486 1487 1488 1489 1491 1491 1492 1493 1494 1495 1496 1496 1497 1497 1497 1497 1498 1498 1498 1499 1499
1458 1460 1461 1462 1463 1464 1465 1466 1467 1469 1470 1471 1472 1473 1474 1474 1475 1477 1478 1480 1481 1482 1483 1484 1485 1486 1487 1488 1489 1489 1490 1491 1492 1493 1493 1493 1493 1494 1494 1494 1494 1494 1495 1495
1455 1456 1457 1458 1459 1460 1461 1462 1464 1465 1466 1468 1468 1469 1470 1471 1472 1474 1475 1477 1478 1479 1480 1481 1482 1483 1484 1485 1486 1486 1487 1488 1489 1489 1489 1490 1490 1490 1490 1490 1490 1491 1491 1491
1451 1452 1453 1454 1455 1456 1457 1458 1459 1461 1462 1464 1464 1465 1467 1468 1470 1471 1473 1474 1476 1477 1477 1478 1479 1480 1481 1482 1483 1483 1484 1485 1485 1486 1486 1486 1486 1486 1486 1486 1487 1487 1487 1486
1448 1448 1449 1450 1451 1452 1453 1454 1455 1456 1458 1459 1461 1462 1464 1465 1467 1469 1470 1471 1472 1473 1474 1475 1476 1477 1478 1479 1480 1481 1481 1482 1482 1482 1483 1483 1483 1482 1482 1482 1483 1483 1483 1482
1444 1445 1445 1446 1447 1448 1449 1450 1451 1453 1454 1456 1457 1459 1460 1462 1464 1465 1466 1468 1469 1470 1471 1472 1473 1474 1475 1476 1477 1478 1478 1478 1479 1479 1479 1479 1479 1479 1479 1479 1479 1479 1479 1479
1441 1441 1442 1443 1444 1445 1446 1447 1448 1449 1451 1453 1454 1456 1457 1459 1461 1463 1463 1465 1466 1467 1468 1469 1470 1471 1472 1473 1474 1474 1475 1475 1475 1475 1476 1476 1476 1475 1475 1475 1475 1475 1475 1475
1438 1439 1439 1440 1441 1441 1443 1444 1445 1447 1448 1450 1451 1453 1455 1456 1458 1459 1460 1462 1463 1464 1465 1467 1468 1469 1470 1470 1471 1471 1472 1472 1472 1472 1472 1472 1472 1472 1472 1472 1471 1471 1471 1471
1435 1435 1436 1437 1438 1438 1440 1441 1442 1444 1445 1446 1448 1450 1452 1454 1455 1456 1458 1459 1460 1461 1462 1464 1465 1466 1467 1467 1468 1468 1469 1469 1469 1469 1469 1469 1469 1469 1468 1468 1468 1468 1467 1467
1432 1433 1433 1434 1435 1436 1437 1438 1439 1441 1442 1443 1445 1447 1449 1451 1452 1453 1455 1456 1457 1458 1460 1461 1462 1463 1464 1465 1465 1466 1466 1466 1466 1466 1466 1466 1466 1466 1465 1465 1464 1464 1464 1463